Year,Month,Day,Hour,Minute,Value (Times are PST for temperature in C)
2006,10,28,00,00,13.30
2006,10,28,00,01,13.30
2006,10,28,00,02,13.30
2006,10,28,00,03,13.30
2006,10,28,00,04,13.30
2006,10,28,00,05,13.30
2006,10,28,00,06,13.30
2006,10,28,00,07,13.30
2006,10,28,00,08,13.30
2006,10,28,00,09,13.30
2006,10,28,00,10,13.30
2006,10,28,00,11,13.30
2006,10,28,00,12,13.30
2006,10,28,00,13,13.30
2006,10,28,00,14,13.30
2006,10,28,00,15,13.30
2006,10,28,00,16,13.40
2006,10,28,00,17,13.40
2006,10,28,00,18,13.40
2006,10,28,00,19,13.40
2006,10,28,00,20,13.40
2006,10,28,00,21,13.40
2006,10,28,00,22,13.40
2006,10,28,00,23,13.40
2006,10,28,00,24,13.40
2006,10,28,00,25,13.40
2006,10,28,00,26,13.40
2006,10,28,00,27,13.40
2006,10,28,00,28,13.50
2006,10,28,00,29,13.50
2006,10,28,00,30,13.50
2006,10,28,00,31,13.50
2006,10,28,00,32,13.50
2006,10,28,00,33,13.50
2006,10,28,00,34,13.50
2006,10,28,00,35,13.50
2006,10,28,00,36,13.50
2006,10,28,00,37,13.50
2006,10,28,00,38,13.50
2006,10,28,00,39,13.50
2006,10,28,00,40,13.50
2006,10,28,00,41,13.50
2006,10,28,00,42,13.50
2006,10,28,00,43,13.50
2006,10,28,00,44,13.50
2006,10,28,00,45,13.40
2006,10,28,00,46,13.40
2006,10,28,00,47,13.50
2006,10,28,00,48,13.40
2006,10,28,00,49,13.40
2006,10,28,00,50,13.40
2006,10,28,00,51,13.40
2006,10,28,00,52,13.40
2006,10,28,00,53,13.30
2006,10,28,00,54,13.30
2006,10,28,00,55,13.30
2006,10,28,00,56,13.30
2006,10,28,00,57,13.30
2006,10,28,00,58,13.30
2006,10,28,00,59,13.20
2006,10,28,01,00,13.20
2006,10,28,01,01,13.20
2006,10,28,01,02,13.20
2006,10,28,01,03,13.30
2006,10,28,01,04,13.30
2006,10,28,01,05,13.30
2006,10,28,01,06,13.30
2006,10,28,01,07,13.40
2006,10,28,01,08,13.40
2006,10,28,01,09,13.40
2006,10,28,01,10,13.40
2006,10,28,01,11,13.40
2006,10,28,01,12,13.40
2006,10,28,01,13,13.40
2006,10,28,01,14,13.40
2006,10,28,01,15,13.40
2006,10,28,01,16,13.40
2006,10,28,01,17,13.40
2006,10,28,01,18,13.40
2006,10,28,01,19,13.50
2006,10,28,01,20,13.50
2006,10,28,01,21,13.50
2006,10,28,01,22,13.50
2006,10,28,01,23,13.50
2006,10,28,01,24,13.50
2006,10,28,01,25,13.50
2006,10,28,01,26,13.50
2006,10,28,01,27,13.50
2006,10,28,01,28,13.50
2006,10,28,01,29,13.50
2006,10,28,01,30,13.50
2006,10,28,01,31,13.50
2006,10,28,01,32,13.50
2006,10,28,01,33,13.50
2006,10,28,01,34,13.50
2006,10,28,01,35,13.50
2006,10,28,01,36,13.50
2006,10,28,01,37,13.50
2006,10,28,01,38,13.50
2006,10,28,01,39,13.50
2006,10,28,01,40,13.50
2006,10,28,01,41,13.50
2006,10,28,01,42,13.50
2006,10,28,01,43,13.50
2006,10,28,01,44,13.50
2006,10,28,01,45,13.50
2006,10,28,01,46,13.50
2006,10,28,01,47,13.50
2006,10,28,01,48,13.50
2006,10,28,01,49,13.50
2006,10,28,01,50,13.40
2006,10,28,01,51,13.40
2006,10,28,01,52,13.40
2006,10,28,01,53,13.40
2006,10,28,01,54,13.40
2006,10,28,01,55,13.30
2006,10,28,01,56,13.30
2006,10,28,01,57,13.30
2006,10,28,01,58,13.30
2006,10,28,01,59,13.30
2006,10,28,02,00,13.30
2006,10,28,02,01,13.30
2006,10,28,02,02,13.30
2006,10,28,02,03,13.30
2006,10,28,02,04,13.30
2006,10,28,02,05,13.20
2006,10,28,02,06,13.20
2006,10,28,02,07,13.20
2006,10,28,02,08,13.20
2006,10,28,02,09,13.20
2006,10,28,02,10,13.10
2006,10,28,02,11,13.10
2006,10,28,02,12,13.10
2006,10,28,02,13,13.10
2006,10,28,02,14,13.00
2006,10,28,02,15,13.00
2006,10,28,02,16,12.90
2006,10,28,02,17,12.90
2006,10,28,02,18,12.90
2006,10,28,02,19,12.80
2006,10,28,02,20,12.80
2006,10,28,02,21,12.80
2006,10,28,02,22,12.80
2006,10,28,02,23,12.80
2006,10,28,02,24,12.80
2006,10,28,02,25,12.80
2006,10,28,02,26,12.80
2006,10,28,02,27,12.80
2006,10,28,02,28,12.70
2006,10,28,02,29,12.70
2006,10,28,02,30,12.70
2006,10,28,02,31,12.70
2006,10,28,02,32,12.70
2006,10,28,02,33,12.70
2006,10,28,02,34,12.70
2006,10,28,02,35,12.70
2006,10,28,02,36,12.70
2006,10,28,02,37,12.70
2006,10,28,02,38,12.70
2006,10,28,02,39,12.70
2006,10,28,02,40,12.60
2006,10,28,02,41,12.60
2006,10,28,02,42,12.60
2006,10,28,02,43,12.60
2006,10,28,02,44,12.60
2006,10,28,02,45,12.60
2006,10,28,02,46,12.50
2006,10,28,02,47,12.50
2006,10,28,02,48,12.50
2006,10,28,02,49,12.50
2006,10,28,02,50,12.50
2006,10,28,02,51,12.50
2006,10,28,02,52,12.50
2006,10,28,02,53,12.50
2006,10,28,02,54,12.50
2006,10,28,02,55,12.50
2006,10,28,02,56,12.50
2006,10,28,02,57,12.50
2006,10,28,02,58,12.50
2006,10,28,02,59,12.50
2006,10,28,03,00,12.50
2006,10,28,03,01,12.50
2006,10,28,03,02,12.50
2006,10,28,03,03,12.50
2006,10,28,03,04,12.50
2006,10,28,03,05,12.60
2006,10,28,03,06,12.60
2006,10,28,03,07,12.60
2006,10,28,03,08,12.60
2006,10,28,03,09,12.60
2006,10,28,03,10,12.50
2006,10,28,03,11,12.50
2006,10,28,03,12,12.50
2006,10,28,03,13,12.40
2006,10,28,03,14,12.40
2006,10,28,03,15,12.40
2006,10,28,03,16,12.40
2006,10,28,03,17,12.40
2006,10,28,03,18,12.30
2006,10,28,03,19,12.30
2006,10,28,03,20,12.30
2006,10,28,03,21,12.30
2006,10,28,03,22,12.30
2006,10,28,03,23,12.30
2006,10,28,03,24,12.30
2006,10,28,03,25,12.30
2006,10,28,03,26,12.30
2006,10,28,03,27,12.30
2006,10,28,03,28,12.20
2006,10,28,03,29,12.20
2006,10,28,03,30,12.20
2006,10,28,03,31,12.10
2006,10,28,03,32,12.10
2006,10,28,03,33,12.00
2006,10,28,03,34,12.00
2006,10,28,03,35,11.90
2006,10,28,03,36,11.90
2006,10,28,03,37,11.90
2006,10,28,03,38,11.90
2006,10,28,03,39,11.80
2006,10,28,03,40,11.80
2006,10,28,03,41,11.80
2006,10,28,03,42,11.80
2006,10,28,03,43,11.80
2006,10,28,03,44,11.70
2006,10,28,03,45,11.70
2006,10,28,03,46,11.60
2006,10,28,03,47,11.60
2006,10,28,03,48,11.50
2006,10,28,03,49,11.40
2006,10,28,03,50,11.40
2006,10,28,03,51,11.30
2006,10,28,03,52,11.30
2006,10,28,03,53,11.20
2006,10,28,03,54,11.20
2006,10,28,03,55,11.10
2006,10,28,03,56,11.10
2006,10,28,03,57,11.10
2006,10,28,03,58,11.10
2006,10,28,03,59,11.10
2006,10,28,04,00,11.10
2006,10,28,04,01,11.10
2006,10,28,04,02,11.10
2006,10,28,04,03,11.10
2006,10,28,04,04,11.00
2006,10,28,04,05,10.90
2006,10,28,04,06,10.90
2006,10,28,04,07,10.90
2006,10,28,04,08,10.90
2006,10,28,04,09,10.80
2006,10,28,04,10,10.80
2006,10,28,04,11,10.70
2006,10,28,04,12,10.70
2006,10,28,04,13,10.60
2006,10,28,04,14,10.60
2006,10,28,04,15,10.60
2006,10,28,04,16,10.60
2006,10,28,04,17,10.60
2006,10,28,04,18,10.50
2006,10,28,04,19,10.50
2006,10,28,04,20,10.60
2006,10,28,04,21,10.40
2006,10,28,04,22,10.40
2006,10,28,04,23,10.40
2006,10,28,04,24,10.40
2006,10,28,04,25,10.40
2006,10,28,04,26,10.50
2006,10,28,04,27,10.60
2006,10,28,04,28,10.60
2006,10,28,04,29,10.60
2006,10,28,04,30,10.60
2006,10,28,04,31,10.70
2006,10,28,04,32,10.70
2006,10,28,04,33,10.70
2006,10,28,04,34,10.70
2006,10,28,04,35,10.70
2006,10,28,04,36,10.70
2006,10,28,04,37,10.70
2006,10,28,04,38,10.70
2006,10,28,04,39,10.70
2006,10,28,04,40,10.80
2006,10,28,04,41,10.80
2006,10,28,04,42,10.80
2006,10,28,04,43,10.80
2006,10,28,04,44,10.70
2006,10,28,04,45,10.70
2006,10,28,04,46,10.70
2006,10,28,04,47,10.70
2006,10,28,04,48,10.60
2006,10,28,04,49,10.60
2006,10,28,04,50,10.60
2006,10,28,04,51,10.60
2006,10,28,04,52,10.60
2006,10,28,04,53,10.60
2006,10,28,04,54,10.60
2006,10,28,04,55,10.60
2006,10,28,04,56,10.60
2006,10,28,04,57,10.60
2006,10,28,04,58,10.60
2006,10,28,04,59,10.60
2006,10,28,05,00,10.60
2006,10,28,05,01,10.60
2006,10,28,05,02,10.60
2006,10,28,05,03,10.60
2006,10,28,05,04,10.70
2006,10,28,05,05,10.80
2006,10,28,05,06,10.80
2006,10,28,05,07,10.80
2006,10,28,05,08,10.80
2006,10,28,05,09,10.80
2006,10,28,05,10,10.80
2006,10,28,05,11,10.80
2006,10,28,05,12,10.80
2006,10,28,05,13,10.70
2006,10,28,05,14,10.70
2006,10,28,05,15,10.70
2006,10,28,05,16,10.70
2006,10,28,05,17,10.70
2006,10,28,05,18,10.80
2006,10,28,05,19,10.80
2006,10,28,05,20,10.80
2006,10,28,05,21,10.80
2006,10,28,05,22,10.80
2006,10,28,05,23,10.80
2006,10,28,05,24,10.80
2006,10,28,05,25,10.80
2006,10,28,05,26,10.80
2006,10,28,05,27,10.70
2006,10,28,05,28,10.70
2006,10,28,05,29,10.70
2006,10,28,05,30,10.70
2006,10,28,05,31,10.70
2006,10,28,05,32,10.70
2006,10,28,05,33,10.70
2006,10,28,05,34,10.70
2006,10,28,05,35,10.70
2006,10,28,05,36,10.70
2006,10,28,05,37,10.70
2006,10,28,05,38,10.70
2006,10,28,05,39,10.80
2006,10,28,05,40,10.80
2006,10,28,05,41,10.90
2006,10,28,05,42,10.90
2006,10,28,05,43,10.90
2006,10,28,05,44,10.90
2006,10,28,05,45,10.90
2006,10,28,05,46,10.90
2006,10,28,05,47,10.90
2006,10,28,05,48,10.90
2006,10,28,05,49,10.90
2006,10,28,05,50,10.90
2006,10,28,05,51,10.90
2006,10,28,05,52,10.90
2006,10,28,05,53,11.00
2006,10,28,05,54,11.10
2006,10,28,05,55,11.10
2006,10,28,05,56,11.10
2006,10,28,05,57,11.10
2006,10,28,05,58,11.10
2006,10,28,05,59,11.10
2006,10,28,06,00,11.20
2006,10,28,06,01,11.20
2006,10,28,06,02,11.20
2006,10,28,06,03,11.20
2006,10,28,06,04,11.20
2006,10,28,06,05,11.20
2006,10,28,06,06,11.20
2006,10,28,06,07,11.30
2006,10,28,06,08,11.30
2006,10,28,06,09,11.30
2006,10,28,06,10,11.30
2006,10,28,06,11,11.30
2006,10,28,06,12,11.30
2006,10,28,06,13,11.30
2006,10,28,06,14,11.30
2006,10,28,06,15,11.40
2006,10,28,06,16,11.40
2006,10,28,06,17,11.30
2006,10,28,06,18,11.40
2006,10,28,06,19,11.40
2006,10,28,06,20,11.40
2006,10,28,06,21,11.40
2006,10,28,06,22,11.40
2006,10,28,06,23,11.40
2006,10,28,06,24,11.50
2006,10,28,06,25,11.60
2006,10,28,06,26,11.60
2006,10,28,06,27,11.60
2006,10,28,06,28,11.60
2006,10,28,06,29,11.60
2006,10,28,06,30,11.60
2006,10,28,06,31,11.60
2006,10,28,06,32,11.60
2006,10,28,06,33,11.60
2006,10,28,06,34,11.60
2006,10,28,06,35,11.60
2006,10,28,06,36,11.60
2006,10,28,06,37,11.60
2006,10,28,06,38,11.60
2006,10,28,06,39,11.60
2006,10,28,06,40,11.60
2006,10,28,06,41,11.60
2006,10,28,06,42,11.60
2006,10,28,06,43,11.60
2006,10,28,06,44,11.60
2006,10,28,06,45,11.60
2006,10,28,06,46,11.70
2006,10,28,06,47,11.70
2006,10,28,06,48,11.80
2006,10,28,06,49,11.80
2006,10,28,06,50,11.80
2006,10,28,06,51,11.80
2006,10,28,06,52,11.80
2006,10,28,06,53,11.80
2006,10,28,06,54,11.80
2006,10,28,06,55,11.80
2006,10,28,06,56,11.80
2006,10,28,06,57,11.80
2006,10,28,06,58,11.80
2006,10,28,06,59,11.80
2006,10,28,07,00,11.80
2006,10,28,07,01,11.80
2006,10,28,07,02,11.80
2006,10,28,07,03,11.80
2006,10,28,07,04,11.80
2006,10,28,07,05,11.80
2006,10,28,07,06,11.90
2006,10,28,07,07,11.90
2006,10,28,07,08,11.90
2006,10,28,07,09,11.90
2006,10,28,07,10,11.90
2006,10,28,07,11,11.90
2006,10,28,07,12,11.90
2006,10,28,07,13,11.90
2006,10,28,07,14,11.90
2006,10,28,07,15,11.90
2006,10,28,07,16,11.90
2006,10,28,07,17,11.80
2006,10,28,07,18,11.80
2006,10,28,07,19,11.80
2006,10,28,07,20,11.80
2006,10,28,07,21,11.80
2006,10,28,07,22,11.80
2006,10,28,07,23,11.80
2006,10,28,07,24,11.80
2006,10,28,07,25,11.80
2006,10,28,07,26,11.70
2006,10,28,07,27,11.70
2006,10,28,07,28,11.70
2006,10,28,07,29,11.70
2006,10,28,07,30,11.70
2006,10,28,07,31,11.70
2006,10,28,07,32,11.70
2006,10,28,07,33,11.70
2006,10,28,07,34,11.70
2006,10,28,07,35,11.70
2006,10,28,07,36,11.60
2006,10,28,07,37,11.60
2006,10,28,07,38,11.60
2006,10,28,07,39,11.60
2006,10,28,07,40,11.60
2006,10,28,07,41,11.60
2006,10,28,07,42,11.60
2006,10,28,07,43,11.60
2006,10,28,07,44,11.60
2006,10,28,07,45,11.50
2006,10,28,07,46,11.40
2006,10,28,07,47,11.40
2006,10,28,07,48,11.40
2006,10,28,07,49,11.40
2006,10,28,07,50,11.40
2006,10,28,07,51,11.40
2006,10,28,07,52,11.40
2006,10,28,07,53,11.40
2006,10,28,07,54,11.40
2006,10,28,07,55,11.50
2006,10,28,07,56,11.60
2006,10,28,07,57,11.60
2006,10,28,07,58,11.60
2006,10,28,07,59,11.60
2006,10,28,08,00,11.60
2006,10,28,08,01,11.60
2006,10,28,08,02,11.60
2006,10,28,08,03,11.60
2006,10,28,08,04,11.60
2006,10,28,08,05,11.50
2006,10,28,08,06,11.40
2006,10,28,08,07,11.40
2006,10,28,08,08,11.40
2006,10,28,08,09,11.40
2006,10,28,08,10,11.40
2006,10,28,08,11,11.40
2006,10,28,08,12,11.40
2006,10,28,08,13,11.40
2006,10,28,08,14,11.40
2006,10,28,08,15,11.40
2006,10,28,08,16,11.40
2006,10,28,08,17,11.40
2006,10,28,08,18,11.40
2006,10,28,08,19,11.40
2006,10,28,08,20,11.40
2006,10,28,08,21,11.40
2006,10,28,08,22,11.40
2006,10,28,08,23,11.40
2006,10,28,08,24,11.40
2006,10,28,08,25,11.40
2006,10,28,08,26,11.40
2006,10,28,08,27,11.40
2006,10,28,08,28,11.30
2006,10,28,08,29,11.30
2006,10,28,08,30,11.30
2006,10,28,08,31,11.30
2006,10,28,08,32,11.30
2006,10,28,08,33,11.30
2006,10,28,08,34,11.20
2006,10,28,08,35,11.20
2006,10,28,08,36,11.30
2006,10,28,08,37,11.30
2006,10,28,08,38,11.40
2006,10,28,08,39,11.40
2006,10,28,08,40,11.40
2006,10,28,08,41,11.50
2006,10,28,08,42,11.60
2006,10,28,08,43,11.60
2006,10,28,08,44,11.60
2006,10,28,08,45,11.70
2006,10,28,08,46,11.70
2006,10,28,08,47,11.80
2006,10,28,08,48,11.80
2006,10,28,08,49,11.80
2006,10,28,08,50,11.80
2006,10,28,08,51,11.80
2006,10,28,08,52,11.80
2006,10,28,08,53,11.80
2006,10,28,08,54,11.80
2006,10,28,08,55,11.80
2006,10,28,08,56,11.80
2006,10,28,08,57,11.90
2006,10,28,08,58,11.90
2006,10,28,08,59,11.90
2006,10,28,09,00,11.90
2006,10,28,09,01,12.00
2006,10,28,09,02,12.00
2006,10,28,09,03,12.10
2006,10,28,09,04,12.10
2006,10,28,09,05,12.10
2006,10,28,09,06,12.10
2006,10,28,09,07,12.20
2006,10,28,09,08,12.20
2006,10,28,09,09,12.30
2006,10,28,09,10,12.30
2006,10,28,09,11,12.30
2006,10,28,09,12,12.30
2006,10,28,09,13,12.40
2006,10,28,09,14,12.40
2006,10,28,09,15,12.50
2006,10,28,09,16,12.60
2006,10,28,09,17,12.70
2006,10,28,09,18,12.80
2006,10,28,09,19,12.90
2006,10,28,09,20,13.00
2006,10,28,09,21,13.10
2006,10,28,09,22,13.10
2006,10,28,09,23,13.20
2006,10,28,09,24,13.30
2006,10,28,09,25,13.40
2006,10,28,09,26,13.50
2006,10,28,09,27,13.50
2006,10,28,09,28,13.60
2006,10,28,09,29,13.70
2006,10,28,09,30,13.70
2006,10,28,09,31,13.80
2006,10,28,09,32,13.80
2006,10,28,09,33,13.90
2006,10,28,09,34,14.00
2006,10,28,09,35,14.00
2006,10,28,09,36,14.10
2006,10,28,09,37,14.10
2006,10,28,09,38,14.20
2006,10,28,09,39,14.20
2006,10,28,09,40,14.20
2006,10,28,09,41,14.30
2006,10,28,09,42,14.40
2006,10,28,09,43,14.40
2006,10,28,09,44,14.40
2006,10,28,09,45,14.40
2006,10,28,09,46,14.40
2006,10,28,09,47,14.40
2006,10,28,09,48,14.30
2006,10,28,09,49,14.20
2006,10,28,09,50,14.20
2006,10,28,09,51,14.20
2006,10,28,09,52,14.20
2006,10,28,09,53,14.20
2006,10,28,09,54,14.20
2006,10,28,09,55,14.20
2006,10,28,09,56,14.20
2006,10,28,09,57,14.20
2006,10,28,09,58,14.20
2006,10,28,09,59,14.20
2006,10,28,10,00,14.20
2006,10,28,10,01,14.20
2006,10,28,10,02,14.20
2006,10,28,10,03,14.20
2006,10,28,10,04,14.20
2006,10,28,10,05,14.20
2006,10,28,10,06,14.20
2006,10,28,10,07,14.20
2006,10,28,10,08,14.20
2006,10,28,10,09,14.20
2006,10,28,10,10,14.20
2006,10,28,10,11,14.20
2006,10,28,10,12,14.20
2006,10,28,10,13,14.20
2006,10,28,10,14,14.30
2006,10,28,10,15,14.30
2006,10,28,10,16,14.30
2006,10,28,10,17,14.30
2006,10,28,10,18,14.40
2006,10,28,10,19,14.40
2006,10,28,10,20,14.50
2006,10,28,10,21,14.50
2006,10,28,10,22,14.60
2006,10,28,10,23,14.60
2006,10,28,10,24,14.70
2006,10,28,10,25,14.80
2006,10,28,10,26,14.80
2006,10,28,10,27,14.90
2006,10,28,10,28,15.00
2006,10,28,10,29,15.00
2006,10,28,10,30,15.10
2006,10,28,10,31,15.20
2006,10,28,10,32,15.30
2006,10,28,10,33,15.30
2006,10,28,10,34,15.30
2006,10,28,10,35,15.30
2006,10,28,10,36,15.30
2006,10,28,10,37,15.30
2006,10,28,10,38,15.30
2006,10,28,10,39,15.30
2006,10,28,10,40,15.30
2006,10,28,10,41,15.30
2006,10,28,10,42,15.40
2006,10,28,10,43,15.40
2006,10,28,10,44,15.40
2006,10,28,10,45,15.40
2006,10,28,10,46,15.40
2006,10,28,10,47,15.40
2006,10,28,10,48,15.40
2006,10,28,10,49,15.40
2006,10,28,10,50,15.40
2006,10,28,10,51,15.40
2006,10,28,10,52,15.40
2006,10,28,10,53,15.30
2006,10,28,10,54,15.30
2006,10,28,10,55,15.40
2006,10,28,10,56,15.40
2006,10,28,10,57,15.40
2006,10,28,10,58,15.40
2006,10,28,10,59,15.40
2006,10,28,11,00,15.40
2006,10,28,11,01,15.50
2006,10,28,11,02,15.50
2006,10,28,11,03,15.60
2006,10,28,11,04,15.60
2006,10,28,11,05,15.60
2006,10,28,11,06,15.70
2006,10,28,11,07,15.70
2006,10,28,11,08,15.80
2006,10,28,11,09,15.80
2006,10,28,11,10,15.80
2006,10,28,11,11,15.80
2006,10,28,11,12,15.90
2006,10,28,11,13,16.00
2006,10,28,11,14,16.10
2006,10,28,11,15,16.10
2006,10,28,11,16,16.20
2006,10,28,11,17,16.20
2006,10,28,11,18,16.30
2006,10,28,11,19,16.30
2006,10,28,11,20,16.30
2006,10,28,11,21,16.40
2006,10,28,11,22,16.40
2006,10,28,11,23,16.30
2006,10,28,11,24,16.40
2006,10,28,11,25,16.40
2006,10,28,11,26,16.40
2006,10,28,11,27,16.40
2006,10,28,11,28,16.60
2006,10,28,11,29,16.60
2006,10,28,11,30,16.60
2006,10,28,11,31,16.50
2006,10,28,11,32,16.40
2006,10,28,11,33,16.40
2006,10,28,11,34,16.50
2006,10,28,11,35,16.60
2006,10,28,11,36,16.60
2006,10,28,11,37,16.60
2006,10,28,11,38,16.60
2006,10,28,11,39,16.60
2006,10,28,11,40,16.60
2006,10,28,11,41,16.60
2006,10,28,11,42,16.60
2006,10,28,11,43,16.70
2006,10,28,11,44,16.70
2006,10,28,11,45,16.70
2006,10,28,11,46,16.70
2006,10,28,11,47,16.70
2006,10,28,11,48,16.70
2006,10,28,11,49,16.70
2006,10,28,11,50,16.70
2006,10,28,11,51,16.70
2006,10,28,11,52,16.70
2006,10,28,11,53,16.70
2006,10,28,11,54,16.80
2006,10,28,11,55,16.80
2006,10,28,11,56,16.80
2006,10,28,11,57,16.80
2006,10,28,11,58,16.80
2006,10,28,11,59,16.80
2006,10,28,12,00,16.80
2006,10,28,12,01,16.80
2006,10,28,12,02,16.80
2006,10,28,12,03,16.80
2006,10,28,12,04,16.70
2006,10,28,12,05,16.70
2006,10,28,12,06,16.70
2006,10,28,12,07,16.60
2006,10,28,12,08,16.60
2006,10,28,12,09,16.60
2006,10,28,12,10,16.60
2006,10,28,12,11,16.50
2006,10,28,12,12,16.40
2006,10,28,12,13,16.40
2006,10,28,12,14,16.40
2006,10,28,12,15,16.40
2006,10,28,12,16,16.40
2006,10,28,12,17,16.40
2006,10,28,12,18,16.40
2006,10,28,12,19,16.60
2006,10,28,12,20,16.60
2006,10,28,12,21,16.60
2006,10,28,12,22,16.50
2006,10,28,12,23,16.40
2006,10,28,12,24,16.50
2006,10,28,12,25,16.60
2006,10,28,12,26,16.60
2006,10,28,12,27,16.60
2006,10,28,12,28,16.60
2006,10,28,12,29,16.60
2006,10,28,12,30,16.60
2006,10,28,12,31,16.60
2006,10,28,12,32,16.60
2006,10,28,12,33,16.60
2006,10,28,12,34,16.70
2006,10,28,12,35,16.60
2006,10,28,12,36,16.60
2006,10,28,12,37,16.60
2006,10,28,12,38,16.50
2006,10,28,12,39,16.40
2006,10,28,12,40,16.40
2006,10,28,12,41,16.40
2006,10,28,12,42,16.40
2006,10,28,12,43,16.40
2006,10,28,12,44,16.40
2006,10,28,12,45,16.40
2006,10,28,12,46,16.40
2006,10,28,12,47,16.40
2006,10,28,12,48,16.30
2006,10,28,12,49,16.30
2006,10,28,12,50,16.20
2006,10,28,12,51,16.10
2006,10,28,12,52,16.10
2006,10,28,12,53,16.10
2006,10,28,12,54,16.10
2006,10,28,12,55,16.10
2006,10,28,12,56,16.10
2006,10,28,12,57,16.10
2006,10,28,12,58,16.10
2006,10,28,12,59,16.10
2006,10,28,13,00,16.10
2006,10,28,13,01,16.10
2006,10,28,13,02,16.10
2006,10,28,13,03,16.10
2006,10,28,13,04,16.10
2006,10,28,13,05,16.10
2006,10,28,13,06,16.10
2006,10,28,13,07,16.10
2006,10,28,13,08,16.10
2006,10,28,13,09,16.10
2006,10,28,13,10,16.10
2006,10,28,13,11,16.10
2006,10,28,13,12,16.10
2006,10,28,13,13,16.10
2006,10,28,13,14,16.10
2006,10,28,13,15,16.10
2006,10,28,13,16,16.10
2006,10,28,13,17,16.10
2006,10,28,13,18,16.10
2006,10,28,13,19,16.10
2006,10,28,13,20,16.10
2006,10,28,13,21,15.90
2006,10,28,13,22,16.00
2006,10,28,13,23,16.10
2006,10,28,13,24,16.10
2006,10,28,13,25,16.10
2006,10,28,13,26,16.10
2006,10,28,13,27,16.10
2006,10,28,13,28,16.10
2006,10,28,13,29,16.10
2006,10,28,13,30,16.10
2006,10,28,13,31,16.00
2006,10,28,13,32,15.90
2006,10,28,13,33,15.90
2006,10,28,13,34,15.90
2006,10,28,13,35,15.90
2006,10,28,13,36,15.90
2006,10,28,13,37,15.80
2006,10,28,13,38,15.80
2006,10,28,13,39,15.80
2006,10,28,13,40,15.80
2006,10,28,13,41,15.80
2006,10,28,13,42,15.80
2006,10,28,13,43,15.80
2006,10,28,13,44,15.70
2006,10,28,13,45,15.70
2006,10,28,13,46,15.70
2006,10,28,13,47,15.70
2006,10,28,13,48,15.70
2006,10,28,13,49,15.60
2006,10,28,13,50,15.60
2006,10,28,13,51,15.60
2006,10,28,13,52,15.60
2006,10,28,13,53,15.70
2006,10,28,13,54,15.70
2006,10,28,13,55,15.70
2006,10,28,13,56,15.80
2006,10,28,13,57,15.80
2006,10,28,13,58,15.80
2006,10,28,13,59,15.80
2006,10,28,14,00,15.90
2006,10,28,14,01,15.90
2006,10,28,14,02,16.10
2006,10,28,14,03,16.10
2006,10,28,14,04,16.20
2006,10,28,14,05,16.20
2006,10,28,14,06,16.30
2006,10,28,14,07,16.40
2006,10,28,14,08,16.50
2006,10,28,14,09,16.60
2006,10,28,14,10,16.70
2006,10,28,14,11,16.70
2006,10,28,14,12,16.70
2006,10,28,14,13,16.70
2006,10,28,14,14,16.60
2006,10,28,14,15,16.60
2006,10,28,14,16,16.40
2006,10,28,14,17,16.40
2006,10,28,14,18,16.40
2006,10,28,14,19,16.40
2006,10,28,14,20,16.40
2006,10,28,14,21,16.40
2006,10,28,14,22,16.40
2006,10,28,14,23,16.40
2006,10,28,14,24,16.30
2006,10,28,14,25,16.30
2006,10,28,14,26,16.20
2006,10,28,14,27,16.20
2006,10,28,14,28,16.10
2006,10,28,14,29,16.10
2006,10,28,14,30,16.10
2006,10,28,14,31,16.10
2006,10,28,14,32,16.10
2006,10,28,14,33,16.10
2006,10,28,14,34,16.10
2006,10,28,14,35,16.10
2006,10,28,14,36,16.20
2006,10,28,14,37,16.20
2006,10,28,14,38,16.20
2006,10,28,14,39,16.20
2006,10,28,14,40,16.30
2006,10,28,14,41,16.30
2006,10,28,14,42,16.30
2006,10,28,14,43,16.30
2006,10,28,14,44,16.30
2006,10,28,14,45,16.30
2006,10,28,14,46,16.30
2006,10,28,14,47,16.30
2006,10,28,14,48,16.40
2006,10,28,14,49,16.40
2006,10,28,14,50,16.40
2006,10,28,14,51,16.40
2006,10,28,14,52,16.40
2006,10,28,14,53,16.50
2006,10,28,14,54,16.60
2006,10,28,14,55,16.70
2006,10,28,14,56,16.70
2006,10,28,14,57,16.80
2006,10,28,14,58,16.80
2006,10,28,14,59,16.90
2006,10,28,15,00,17.00
2006,10,28,15,01,17.10
2006,10,28,15,02,17.10
2006,10,28,15,03,17.20
2006,10,28,15,04,17.20
2006,10,28,15,05,17.20
2006,10,28,15,06,17.20
2006,10,28,15,07,17.20
2006,10,28,15,08,17.20
2006,10,28,15,09,17.10
2006,10,28,15,10,17.10
2006,10,28,15,11,17.00
2006,10,28,15,12,17.00
2006,10,28,15,13,16.90
2006,10,28,15,14,16.90
2006,10,28,15,15,16.80
2006,10,28,15,16,16.70
2006,10,28,15,17,16.70
2006,10,28,15,18,16.70
2006,10,28,15,19,16.60
2006,10,28,15,20,16.50
2006,10,28,15,21,16.40
2006,10,28,15,22,16.40
2006,10,28,15,23,16.40
2006,10,28,15,24,16.30
2006,10,28,15,25,16.30
2006,10,28,15,26,16.30
2006,10,28,15,27,16.20
2006,10,28,15,28,16.20
2006,10,28,15,29,16.20
2006,10,28,15,30,16.20
2006,10,28,15,31,16.20
2006,10,28,15,32,16.20
2006,10,28,15,33,16.20
2006,10,28,15,34,16.30
2006,10,28,15,35,16.20
2006,10,28,15,36,16.20
2006,10,28,15,37,16.20
2006,10,28,15,38,16.20
2006,10,28,15,39,16.10
2006,10,28,15,40,16.10
2006,10,28,15,41,16.10
2006,10,28,15,42,16.10
2006,10,28,15,43,16.10
2006,10,28,15,44,16.10
2006,10,28,15,45,16.10
2006,10,28,15,46,16.10
2006,10,28,15,47,16.20
2006,10,28,15,48,16.20
2006,10,28,15,49,16.20
2006,10,28,15,50,16.20
2006,10,28,15,51,16.20
2006,10,28,15,52,16.20
2006,10,28,15,53,16.20
2006,10,28,15,54,16.20
2006,10,28,15,55,16.20
2006,10,28,15,56,16.20
2006,10,28,15,57,16.30
2006,10,28,15,58,16.20
2006,10,28,15,59,16.20
2006,10,28,16,00,16.20
2006,10,28,16,01,16.20
2006,10,28,16,02,16.20
2006,10,28,16,03,16.20
2006,10,28,16,04,16.20
2006,10,28,16,05,16.10
2006,10,28,16,06,16.10
2006,10,28,16,07,16.10
2006,10,28,16,08,16.10
2006,10,28,16,09,16.10
2006,10,28,16,10,16.10
2006,10,28,16,11,16.10
2006,10,28,16,12,16.10
2006,10,28,16,13,16.00
2006,10,28,16,14,15.90
2006,10,28,16,15,15.90
2006,10,28,16,16,15.90
2006,10,28,16,17,15.80
2006,10,28,16,18,15.80
2006,10,28,16,19,15.80
2006,10,28,16,20,15.80
2006,10,28,16,21,15.80
2006,10,28,16,22,15.80
2006,10,28,16,23,15.70
2006,10,28,16,24,15.70
2006,10,28,16,25,15.70
2006,10,28,16,26,15.70
2006,10,28,16,27,15.60
2006,10,28,16,28,15.60
2006,10,28,16,29,15.60
2006,10,28,16,30,15.60
2006,10,28,16,31,15.50
2006,10,28,16,32,15.50
2006,10,28,16,33,15.50
2006,10,28,16,34,15.40
2006,10,28,16,35,15.40
2006,10,28,16,36,15.40
2006,10,28,16,37,15.40
2006,10,28,16,38,15.30
2006,10,28,16,39,15.30
2006,10,28,16,40,15.30
2006,10,28,16,41,15.30
2006,10,28,16,42,15.30
2006,10,28,16,43,15.30
2006,10,28,16,44,15.30
2006,10,28,16,45,15.20
2006,10,28,16,46,15.20
2006,10,28,16,47,15.20
2006,10,28,16,48,15.20
2006,10,28,16,49,15.20
2006,10,28,16,50,15.20
2006,10,28,16,51,15.10
2006,10,28,16,52,15.10
2006,10,28,16,53,15.10
2006,10,28,16,54,15.10
2006,10,28,16,55,15.10
2006,10,28,16,56,15.10
2006,10,28,16,57,15.10
2006,10,28,16,58,15.00
2006,10,28,16,59,15.00
2006,10,28,17,00,15.00
2006,10,28,17,01,15.00
2006,10,28,17,02,14.90
2006,10,28,17,03,14.90
2006,10,28,17,04,14.90
2006,10,28,17,05,14.90
2006,10,28,17,06,14.90
2006,10,28,17,07,14.80
2006,10,28,17,08,14.80
2006,10,28,17,09,14.80
2006,10,28,17,10,14.80
2006,10,28,17,11,14.80
2006,10,28,17,12,14.80
2006,10,28,17,13,14.80
2006,10,28,17,14,14.80
2006,10,28,17,15,14.80
2006,10,28,17,16,14.80
2006,10,28,17,17,14.70
2006,10,28,17,18,14.70
2006,10,28,17,19,14.70